Temperature
20 20 20 19 19 19 19 19 18 18 18 18 18 18 17 17 17 17 17 16 16 16 16 16 16 16 16 16 16 16 16 16 16 16 16 16 16 16 16 16 15 15 15
20 20 20 19 19 19 18 18 18 18 18 18 17 17 17 17 17 17 16 16 16 16 16 16 16 16 16 16 16 16 16 16 15 15 15 15 15 15 15 15 15 15 15
20 20 19 19 19 19 18 18 18 18 18 17 17 17 17 17 16 16 16 16 16 16 16 16 15 15 15 15 15 15 15 15 15 15 15 15 15 15 15 15 15 15 15
20 19 19 19 19 18 18 18 18 18 17 17 17 17 17 16 16 16 16 16 16 16 15 15 15 15 15 15 15 15 15 15 15 14 14 14 14 14 14 14 14 14 14
19 19 19 19 18 18 18 18 17 17 17 17 17 16 16 16 16 16 16 16 15 15 15 15 15 15 14 14 14 14 14 14 14 14 14 14 14 14 14 14 14 14 14
19 19 19 19 18 18 18 17 17 17 17 16 16 16 16 16 16 16 16 15 15 15 15 15 15 14 14 14 14 14 14 14 14 13 13 13 13 13 13 13 13 13 13
19 19 19 18 18 18 17 17 17 17 16 16 16 16 16 16 16 15 15 15 15 15 15 15 14 14 14 14 14 14 13 13 13 13 13 13 13 13 13 13 13 13 13
19 18 18 18 18 17 17 17 17 16 16 16 16 16 16 15 15 15 15 15 15 15 14 14 14 14 14 14 14 13 13 13 13 13 13 13 12 12 12 12 12 12 12
18 18 18 18 17 17 17 17 16 16 16 16 16 16 15 15 15 15 15 15 15 14 14 14 14 14 14 13 13 13 13 13 13 12 12 12 12 12 12 12 12 12 12
18 18 18 17 17 17 17 17 16 16 16 16 15 15 15 15 15 15 15 14 14 14 14 14 13 13 13 13 13 13 13 13 13 13 12 12 12 12 12 12 12 12 11
18 18 17 17 17 17 17 16 16 16 16 15 15 15 15 15 15 15 14 14 14 14 14 13 13 13 13 13 13 13 12 12 12 12 12 12 12 12 12 11 11 11 11
17 17 17 17 17 16 16 16 16 15 15 15 15 15 15 15 14 14 14 14 14 13 13 13 13 13 13 13 13 12 12 12 12 12 12 12 12 12 11 11 11 11 11
17 17 17 17 16 16 16 16 15 15 15 15 15 15 15 15 14 14 14 14 14 13 13 13 13 13 13 12 12 12 12 12 12 12 12 12 11 11 11 11 11 11 11
17 17 16 16 16 16 16 15 15 15 15 15 15 14 14 14 14 14 14 14 13 13 13 13 13 13 12 12 12 12 12 12 11 11 11 11 11 11 11 11 11 11 10
16 16 16 16 16 15 15 15 15 15 15 15 14 14 14 14 14 14 14 13 13 13 13 13 13 12 12 12 12 12 12 12 11 11 11 11 11 11 11 10 10 10 10
16 16 16 16 15 15 15 15 15 15 15 15 15 14 14 14 14 14 13 13 13 13 13 13 12 12 12 12 12 12 12 11 11 11 11 11 11 10 10 10 10 10 10
15 15 15 15 15 15 15 15 14 14 14 14 14 14 14 14 14 13 13 13 13 13 12 12 12 12 12 12 12 12 11 11 11 11 11 11 10 10 10 10 10 10 9
15 15 15 15 15 15 14 14 14 14 14 14 14 14 14 14 13 13 13 13 12 12 12 12 12 12 12 11 11 11 11 11 11 11 11 10 10 10 10 9 9 9 9
15 14 14 14 14 14 14 14 14 14 14 14 14 14 13 13 13 13 13 12 12 12 12 12 12 12 12 11 11 11 11 11 11 10 10 10 10 10 9 9 9 9 9
14 14 14 14 14 14 14 13 13 13 13 13 13 13 13 13 13 13 13 12 12 12 12 12 11 11 11 11 11 11 11 10 10 10 10 10 9 9 9 9 9 9 9
14 14 14 14 13 13 13 13 13 13 13 13 13 13 13 13 13 13 12 12 12 12 12 11 11 11 11 11 11 11 10 10 10 10 10 9 9 9 9 9 8 8 8
13 13 13 13 13 13 13 13 13 13 13 13 13 13 13 12 12 12 12 12 12 12 11 11 11 11 11 11 11 10 10 10 10 10 9 9 9 9 9 8 8 8 8
13 13 13 13 13 13 13 13 13 13 13 13 12 12 12 12 12 12 12 12 11 11 11 11 11 11 11 11 10 10 10 10 10 10 9 9 9 9 9 8 8 8 8
13 13 13 13 13 13 13 12 12 12 12 12 12 12 12 12 12 12 12 11 11 11 11 11 11 11 10 10 10 10 10 10 9 9 9 9 9 8 8 8 8 8 8
12 12 12 12 12 12 12 12 12 12 12 12 12 12 12 12 11 11 11 11 11 11 11 10 10 10 10 10 10 10 9 9 9 9 9 9 8 8 8 8 8 8 7
12 12 12 12 12 12 12 12 12 12 12 12 12 12 11 11 11 11 11 11 11 10 10 10 10 10 10 10 9 9 9 9 9 9 8 8 8 8 8 8 8 7 7
Wind_Speed
7 6 5 5 4 4 4 4 4 3 3 3 2 2 2 1 1 1 1 0 0 1 1 1 1 1 1 2 1 1 1 2 2 3 2 2 2 2 2 1 2 4 4
7 6 6 5 4 4 4 3 3 3 3 3 2 2 2 1 1 1 1 0 0 1 1 1 2 1 2 2 2 1 1 1 2 2 2 2 2 2 2 2 2 1 3
7 6 5 5 5 4 3 3 3 3 2 2 2 2 2 1 1 1 1 1 1 1 1 0 1 1 1 2 1 1 1 1 1 2 2 2 1 1 2 2 2 1 1
7 6 6 5 5 5 4 4 3 3 3 2 2 2 2 2 1 2 2 1 1 1 1 1 1 0 1 1 1 1 1 1 0 0 1 2 2 2 1 1 3 2 2
7 6 6 5 5 4 4 4 3 3 3 3 2 2 2 2 2 2 2 2 1 1 1 1 1 0 0 1 0 0 0 0 0 0 1 2 2 1 1 2 2 3 2
6 5 5 5 4 4 4 3 3 3 3 3 3 2 2 2 2 3 3 2 2 1 1 2 1 1 2 1 1 1 1 1 2 1 1 1 3 2 2 2 1 1 2
6 5 5 5 5 4 4 4 4 4 3 3 3 3 3 3 4 4 3 2 2 2 2 2 1 1 1 1 1 2 2 1 3 4 3 3 3 3 2 2 2 2 3
5 5 5 5 5 4 3 4 4 3 3 4 3 4 4 4 4 4 3 3 2 2 2 2 2 2 1 1 0 1 2 2 2 2 4 5 4 4 4 4 4 2 2
3 4 5 5 5 5 5 5 4 4 3 4 4 4 5 4 4 4 4 2 2 2 3 2 2 2 3 2 1 0 2 3 3 2 3 4 4 4 2 1 0 1 1
3 4 4 5 5 5 6 5 4 4 4 4 3 4 5 5 5 5 5 3 2 2 2 2 3 3 3 3 2 2 2 3 3 4 4 4 3 2 2 3 3 2 1
4 3 3 4 4 5 5 4 5 4 4 4 4 3 4 5 6 6 7 5 4 3 3 3 3 5 5 5 4 3 5 4 2 3 3 3 2 2 2 2 3 4 3
3 2 2 3 4 3 4 4 4 4 4 4 4 4 4 5 5 6 7 7 6 5 4 4 5 6 6 6 5 6 6 3 1 1 2 2 3 3 3 3 3 3 4
3 3 3 2 2 2 3 4 3 4 4 5 4 5 4 4 4 5 6 7 6 4 4 5 6 7 6 5 6 6 4 2 2 1 3 4 3 3 2 1 1 0 1
3 3 2 2 2 2 2 3 4 4 4 5 5 5 4 4 3 3 2 3 3 3 3 3 4 5 4 4 4 3 3 3 3 3 3 3 1 1 1 1 1 0 1
3 2 2 2 2 2 2 3 4 5 6 7 6 6 6 6 7 8 5 3 3 3 1 1 1 1 2 2 2 3 2 2 3 2 2 2 1 1 1 1 1 1 1
2 2 2 2 2 2 2 2 4 4 6 8 9 7 7 8 8 8 7 7 6 5 3 2 3 3 4 4 4 3 3 3 3 3 2 2 2 2 2 1 1 2 2
3 3 3 3 3 3 3 3 3 4 4 5 7 8 8 8 7 7 7 6 5 5 3 3 4 4 4 4 4 4 4 4 3 2 2 2 2 2 2 2 1 1 2
3 3 3 3 3 3 4 3 3 3 3 3 4 5 7 7 7 8 6 3 1 2 3 4 4 4 4 4 4 4 3 3 2 3 3 2 2 2 2 2 2 2 2
3 3 3 3 3 3 3 3 3 4 3 3 2 3 3 3 3 4 5 4 4 4 4 4 4 4 4 4 3 3 3 3 3 3 3 3 3 3 3 3 3 3 3
3 4 3 2 2 2 2 2 3 3 3 3 3 3 2 2 1 2 4 4 4 4 4 4 4 4 4 3 3 3 2 3 3 3 3 3 3 3 3 4 3 3 3
3 3 3 2 3 3 3 3 3 3 3 3 4 4 5 4 4 4 4 4 4 4 5 4 4 4 3 3 3 3 3 3 3 3 3 3 3 3 3 3 4 4 3
2 3 3 3 3 3 3 3 3 3 4 4 3 3 5 4 3 4 4 4 4 4 4 4 3 3 3 4 4 4 4 4 4 3 3 3 3 3 3 3 3 3 3
3 3 3 3 3 3 3 3 3 3 3 3 3 2 3 3 4 4 4 4 3 3 3 3 3 3 3 3 4 5 5 5 5 5 4 4 4 4 3 4 4 4 4
3 3 3 3 2 2 3 3 3 3 3 3 3 3 3 4 4 4 4 4 4 4 3 3 4 5 5 4 4 5 5 5 5 5 6 5 4 4 4 3 4 4 4
2 3 3 3 3 3 3 3 2 3 3 3 3 3 3 3 3 4 3 3 4 4 4 4 4 4 5 5 4 4 5 6 5 5 4 4 4 4 4 3 3 3 4
2 2 3 2 2 3 3 2 2 2 2 3 3 3 3 3 3 3 3 3 3 3 3 3 4 5 4 5 5 5 4 5 5 4 4 4 4 4 4 4 4 3 4
Wind_Direction
165 163 159 161 157 150 155 164 163 166 167 171 175 156 151 160 162 122 175 130 54 331 337 6 337 339 343 328 340 326 240 178 218 281 293 304 324 314 327 305 247 226 223
168 162 162 159 150 149 161 180 177 175 177 184 177 160 172 186 203 178 198 216 210 293 309 3 347 5 2 345 358 343 295 211 185 248 293 305 304 296 311 319 324 258 222
159 159 160 161 161 169 176 180 180 177 176 176 161 165 177 185 190 202 197 209 222 231 226 190 292 47 356 335 346 339 320 338 153 195 263 285 299 315 332 331 340 318 265
155 161 168 175 178 181 179 181 186 178 170 168 158 167 185 196 199 207 200 193 213 243 223 205 208 145 253 286 324 315 334 46 65 163 291 308 308 305 356 334 330 318 298
159 170 181 183 180 177 176 183 184 181 177 167 167 181 201 208 226 212 201 186 189 253 289 268 219 231 249 255 270 233 89 70 64 183 290 329 326 337 297 281 294 303 306
160 178 184 179 172 176 182 182 183 194 187 175 178 186 202 232 229 200 181 183 187 210 263 285 279 304 325 342 342 143 152 173 194 200 240 268 274 268 269 276 298 327 305
160 176 181 182 180 185 185 181 193 200 189 195 200 189 207 238 230 212 194 184 193 213 229 249 280 298 335 332 354 17 347 264 186 185 204 236 245 246 239 258 259 240 252
169 182 185 178 180 185 186 198 205 199 197 204 208 202 211 237 231 224 209 193 196 224 233 230 235 262 270 176 133 353 325 313 274 214 212 233 239 235 222 223 230 246 294
174 180 183 179 182 194 205 209 208 195 205 211 207 201 209 235 230 215 200 182 199 250 259 252 226 231 257 195 153 255 314 309 303 287 264 263 265 252 214 144 88 95 317
202 195 189 182 187 201 208 209 205 197 204 210 216 214 214 227 226 214 192 180 201 245 267 261 238 228 238 201 183 190 255 281 310 324 322 318 307 288 219 188 190 182 204
204 189 190 193 200 210 211 209 203 198 198 206 215 225 225 228 225 214 195 188 198 213 235 248 246 236 235 222 209 214 234 247 273 278 290 300 306 299 269 228 203 188 191
181 187 210 219 219 214 204 215 205 197 198 213 220 235 243 239 231 225 208 202 197 200 224 235 240 236 236 234 233 243 247 250 256 277 289 281 278 273 271 261 241 224 218
186 210 233 241 231 210 200 208 203 201 211 219 217 227 243 245 237 227 210 205 204 206 226 233 243 243 240 244 249 250 244 235 230 245 262 256 252 252 257 278 293 308 304
192 217 230 228 248 246 226 205 202 211 218 225 226 228 234 235 230 225 218 213 213 226 253 265 266 260 250 247 261 258 238 227 218 230 247 252 256 250 252 225 204 279 4
197 215 225 229 230 245 245 233 217 219 212 212 221 216 214 229 231 210 198 206 205 212 213 297 299 288 269 264 265 254 246 242 237 239 232 242 248 242 248 225 167 144 185
199 225 233 235 233 231 235 277 277 250 247 232 225 217 221 222 216 207 204 209 207 180 160 222 243 248 247 247 244 246 240 238 237 230 220 221 229 229 235 229 183 184 219
203 223 230 226 226 231 233 237 265 292 290 262 240 231 223 217 210 207 206 207 201 169 184 225 235 240 244 245 244 236 235 233 218 206 203 207 218 222 218 219 217 222 240
228 239 232 226 227 227 233 238 231 231 257 282 282 253 231 220 217 219 205 163 197 196 217 226 233 236 235 237 240 238 237 226 209 211 210 206 203 205 221 231 223 220 234
241 249 239 232 231 230 230 235 239 234 235 249 276 299 263 226 222 218 178 192 211 223 226 230 231 233 232 229 230 226 219 215 214 209 213 214 213 207 221 234 231 236 231
249 257 251 225 224 230 230 229 235 237 240 240 240 239 203 142 185 209 206 215 216 219 223 229 235 233 227 221 221 217 215 215 213 212 218 225 222 214 220 226 226 230 236
259 262 265 250 238 236 231 221 222 225 229 234 238 227 193 189 201 204 208 215 216 216 220 223 228 230 225 214 210 211 214 222 213 212 218 222 220 225 230 226 228 230 237
250 246 247 247 247 246 241 232 226 226 231 235 246 229 200 199 207 212 213 218 221 219 217 214 222 228 222 212 204 205 213 226 226 217 217 221 224 230 231 232 236 237 235
251 249 254 257 249 246 253 247 234 231 229 227 224 216 202 217 223 223 225 224 217 219 223 212 216 227 222 212 207 203 208 219 220 211 208 218 225 232 233 231 233 237 240
252 245 241 250 253 248 249 251 242 232 225 221 220 219 217 220 228 229 226 219 216 224 221 211 214 215 211 212 219 214 217 222 218 212 207 212 223 231 231 235 236 236 238
257 254 249 242 239 246 246 242 245 241 229 221 219 220 224 222 227 233 225 220 221 225 221 212 206 207 214 215 216 217 218 214 212 209 205 205 216 224 226 235 240 244 240
263 254 246 236 236 238 234 232 240 248 247 238 228 224 224 224 224 223 222 222 220 223 230 224 212 205 214 222 224 219 212 211 215 213 206 204 211 224 227 232 238 241 242
Height
1510 1511 1512 1513 1514 1515 1516 1517 1517 1518 1518 1518 1518 1518 1518 1518 1518 1518 1518 1517 1517 1517 1517 1516 1515 1515 1514 1513 1513 1513 1512 1512 1511 1510 1510 1510 1509 1508 1508 1507 1506 1505 1504
1508 1510 1511 1512 1513 1514 1514 1515 1516 1516 1516 1517 1517 1516 1516 1516 1516 1516 1516 1516 1515 1515 1514 1514 1513 1513 1512 1511 1511 1510 1510 1509 1509 1508 1508 1507 1507 1506 1505 1505 1504 1503 1502
1507 1509 1510 1511 1512 1512 1513 1513 1514 1514 1515 1515 1515 1515 1514 1514 1514 1514 1514 1514 1513 1513 1512 1512 1511 1511 1510 1509 1508 1508 1507 1507 1507 1506 1505 1504 1504 1503 1503 1502 1501 1500 1500
1506 1507 1508 1509 1510 1510 1511 1511 1512 1512 1513 1513 1512 1512 1512 1512 1512 1512 1512 1512 1511 1511 1510 1510 1509 1508 1507 1507 1506 1505 1505 1504 1504 1503 1502 1502 1501 1500 1500 1499 1498 1498 1497
1504 1505 1506 1507 1508 1508 1509 1509 1510 1510 1510 1510 1510 1510 1510 1510 1510 1510 1509 1509 1509 1508 1508 1507 1507 1506 1505 1504 1503 1503 1503 1502 1501 1501 1500 1499 1498 1497 1497 1496 1496 1495 1495
1502 1503 1505 1506 1506 1506 1507 1507 1507 1507 1508 1508 1508 1508 1507 1507 1507 1507 1507 1507 1506 1506 1506 1505 1504 1504 1503 1502 1501 1501 1500 1499 1499 1498 1497 1496 1496 1495 1495 1494 1493 1493 1492
1499 1500 1502 1503 1503 1504 1504 1504 1505 1505 1505 1505 1505 1505 1505 1505 1505 1504 1504 1504 1504 1503 1503 1503 1502 1501 1501 1500 1499 1498 1498 1497 1497 1496 1495 1494 1494 1493 1492 1492 1491 1490 1490
1497 1498 1499 1500 1500 1501 1501 1502 1502 1502 1502 1502 1502 1502 1502 1502 1502 1501 1501 1501 1501 1501 1501 1500 1500 1499 1499 1498 1497 1496 1495 1495 1494 1494 1493 1492 1492 1491 1490 1490 1489 1489 1488
1495 1496 1496 1497 1497 1498 1498 1498 1499 1499 1499 1499 1499 1498 1498 1498 1499 1498 1498 1498 1498 1498 1498 1498 1498 1497 1497 1496 1495 1494 1493 1492 1492 1491 1490 1490 1489 1489 1488 1487 1487 1486 1485
1492 1493 1494 1494 1495 1494 1495 1495 1495 1496 1495 1496 1496 1495 1495 1495 1495 1495 1495 1495 1495 1495 1495 1495 1495 1495 1494 1494 1493 1491 1490 1489 1489 1488 1488 1487 1487 1486 1485 1485 1484 1483 1482
1490 1490 1491 1492 1492 1492 1492 1492 1492 1492 1492 1492 1492 1492 1492 1492 1492 1492 1492 1491 1491 1492 1492 1492 1492 1492 1492 1491 1490 1489 1488 1487 1486 1485 1484 1483 1483 1482 1482 1481 1481 1480 1480
1488 1488 1488 1488 1488 1488 1488 1488 1488 1488 1488 1488 1488 1488 1488 1488 1488 1488 1488 1488 1488 1488 1488 1489 1489 1489 1488 1488 1487 1487 1486 1485 1483 1482 1481 1480 1479 1479 1478 1478 1478 1477 1477
1485 1485 1485 1484 1484 1485 1485 1485 1484 1484 1484 1484 1484 1484 1484 1484 1485 1485 1485 1485 1485 1485 1485 1485 1485 1485 1485 1485 1484 1483 1483 1482 1480 1479 1477 1477 1476 1475 1475 1474 1474 1474 1474
1481 1481 1481 1481 1481 1481 1481 1481 1481 1480 1480 1480 1480 1480 1480 1480 1481 1481 1481 1482 1482 1482 1482 1482 1482 1482 1482 1481 1481 1480 1479 1478 1477 1476 1475 1474 1473 1472 1471 1471 1470 1470 1470
1478 1479 1478 1478 1478 1478 1478 1478 1477 1477 1477 1476 1476 1476 1476 1476 1476 1477 1478 1478 1478 1478 1479 1478 1478 1478 1478 1477 1477 1476 1476 1475 1474 1473 1472 1471 1470 1469 1468 1468 1467 1467 1467
1475 1475 1475 1475 1475 1475 1474 1474 1473 1473 1473 1472 1472 1473 1473 1473 1473 1473 1474 1474 1475 1475 1475 1474 1474 1474 1473 1473 1472 1472 1472 1471 1470 1469 1469 1468 1467 1466 1465 1465 1464 1464 1464
1471 1471 1472 1472 1472 1471 1470 1470 1469 1469 1469 1469 1469 1469 1469 1469 1469 1469 1470 1470 1471 1471 1471 1470 1470 1470 1470 1469 1469 1468 1467 1467 1466 1466 1465 1465 1464 1463 1462 1462 1461 1461 1461
1468 1468 1468 1468 1468 1467 1467 1466 1466 1465 1465 1464 1465 1465 1465 1465 1465 1466 1466 1466 1465 1466 1466 1466 1466 1466 1465 1465 1464 1464 1463 1463 1462 1462 1461 1461 1461 1460 1459 1459 1458 1458 1458
1465 1464 1464 1463 1463 1463 1463 1463 1463 1462 1461 1461 1461 1461 1461 1461 1461 1462 1461 1461 1461 1461 1462 1462 1462 1462 1461 1461 1460 1460 1459 1459 1458 1458 1458 1457 1457 1456 1456 1455 1455 1454 1454
1461 1461 1460 1460 1459 1460 1459 1459 1459 1459 1458 1458 1457 1457 1458 1458 1457 1457 1457 1457 1457 1457 1458 1458 1458 1458 1458 1457 1456 1456 1455 1455 1454 1454 1453 1453 1453 1453 1452 1452 1451 1451 1450
1458 1457 1457 1456 1456 1456 1455 1455 1455 1455 1455 1454 1454 1454 1454 1454 1454 1454 1454 1453 1453 1453 1454 1454 1454 1454 1454 1453 1453 1452 1451 1451 1450 1450 1449 1449 1449 1449 1448 1448 1448 1447 1447
1454 1454 1454 1453 1453 1453 1452 1452 1452 1452 1451 1451 1451 1451 1450 1450 1450 1450 1450 1450 1450 1450 1450 1450 1450 1450 1449 1449 1449 1448 1447 1446 1446 1446 1445 1445 1445 1445 1445 1444 1444 1443 1443
1451 1451 1450 1450 1450 1449 1449 1448 1448 1448 1447 1447 1447 1447 1447 1447 1446 1446 1446 1446 1446 1446 1446 1446 1446 1445 1445 1445 1444 1444 1443 1443 1442 1442 1442 1441 1441 1441 1440 1440 1439 1439 1439
1448 1447 1447 1447 1446 1445 1445 1444 1444 1444 1443 1443 1443 1443 1443 1443 1443 1443 1443 1443 1442 1442 1442 1442 1442 1441 1441 1441 1440 1439 1439 1439 1439 1438 1438 1438 1437 1437 1436 1436 1436 1436 1435
1444 1444 1443 1443 1442 1442 1441 1441 1441 1440 1440 1439 1439 1439 1438 1439 1439 1439 1439 1439 1438 1438 1438 1438 1438 1437 1437 1437 1436 1436 1435 1435 1435 1435 1435 1434 1434 1433 1433 1432 1432 1432 1431
1441 1440 1440 1439 1439 1438 1438 1437 1437 1436 1436 1436 1435 1435 1435 1435 1435 1435 1435 1434 1434 1434 1434 1434 1434 1433 1433 1433 1432 1432 1432 1431 1431 1431 1431 1430 1429 1429 1429 1428 1428 1428 1427